Location: Byszew
(52.1813°N, 19.2693°E)
Time: 01:33:03
(UTC+00:00)

CUTE 1.7 + AOD 2 - Visible Passes

Search period start: 26 June 2022 00:00
Search period end: 06 July 2022 00:00
Orbit: 591 x 607 km, 97.7° (Epoch: 25 June)

Date Brightness Start Highest point End Pass type
(mag) Time Alt. Az. Time Alt. Az. Time Alt. Az.
26 Jun ? 01:14:31 10° ENE 01:15:36 11° E 01:16:40 10° E visible
27 Jun ? 01:24:22 10° NE 01:26:33 14° E 01:28:44 10° ESE visible
28 Jun ? 01:34:41 10° NE 01:37:30 17° E 01:40:18 10° SE visible
05 Jul ? 01:15:49 10° ENE 01:17:09 11° E 01:18:29 10° ESE visible
